Weather History for Tampa Knight Airport, FL

Change the Weather History Date:

Monday, November 11, 2013

  Actual Average (KTPA) Record (KTPA)
Temperature  
Mean Temperature 72 °F 70 °F  
Max Temperature 82 °F 79 °F 88 °F (1986)
Min Temperature 62 °F 61 °F 40 °F (1892)
Degree Days  
Heating Degree Days 0 1  
Month to date heating degree days 9  
Since 1 July heating degree days 13  
Cooling Degree Days 7 6  
Month to date cooling degree days 75  
Year to date cooling degree days 3441  
Growing Degree Days 22 (Base 50)    
Moisture  
Dew Point 62 °F    
Average Humidity 75    
Maximum Humidity 94    
Minimum Humidity 51    
Precipitation  
Precipitation 0.00 in 0.05 in 0.83 in (1968)
Month to date precipitation 0.57  
Year to date precipitation 42.85  
Sea Level Pressure  
Sea Level Pressure 30.12 in    
Wind  
Wind Speed 8 mph (ENE)    
Max Wind Speed 14 mph    
Max Gust Speed 16 mph    
Visibility 10 miles    
Events      
T = Trace of Precipitation, MM = Missing Value Source: NWS Daily Summary

Daily Weather History Graph

Daily Weather History Graph

Search for Another Location

Airport:

Trip Planner

Search our weather history database for the weather conditions in past years. The results will help you decide how hot, cold, wet, or windy it might be!

Date:

Astronomy

Nov. 11, 2013 Rise Set
Actual Time 6:48 AM EST 5:39 PM EST
Civil Twilight 6:23 AM EST 6:03 PM EST
Nautical Twilight 5:55 AM EST 6:31 PM EST
Astronomical Twilight 5:27 AM EST 6:59 PM EST
Moon 1:51 PM EST (11/11) 1:02 AM EST (11/11)
Length of Visible Light 11h 39m
Length of Day
10h 50m
Waxing Gibbous, 66% of the Moon is Illuminated
Nov 11
Waxing Gibbous
Nov 17
Full
Nov 25
Last Quarter
Dec 2
New
Dec 9
First Quarter

Hourly Weather History & Observations

Time (EST) Temp. Heat Index Dew Point Humidity Pressure Visibility Wind Dir Wind Speed Gust Speed Precip Events Conditions
12:15 AM 68.0 °F - 62.6 °F 83% 30.14 in 10.0 mi NE 8.1 mph - N/A   Clear
12:35 AM 68.0 °F - 62.6 °F 83% 30.14 in 10.0 mi NE 10.4 mph - N/A   Clear
12:55 AM 66.2 °F - 62.6 °F 88% 30.14 in 10.0 mi NE 9.2 mph - N/A   Clear
1:15 AM 66.2 °F - 62.6 °F 88% 30.14 in 10.0 mi NE 8.1 mph - N/A   Clear
1:35 AM 66.2 °F - 62.6 °F 88% 30.14 in 10.0 mi NE 9.2 mph - N/A   Clear
1:55 AM 64.4 °F - 62.6 °F 94% 30.13 in 10.0 mi NE 8.1 mph - N/A   Clear
2:15 AM 64.4 °F - 62.6 °F 94% 30.13 in 10.0 mi NE 11.5 mph - N/A   Clear
2:35 AM 64.4 °F - 62.6 °F 94% 30.13 in 10.0 mi NE 8.1 mph - N/A   Clear
2:55 AM 64.4 °F - 62.6 °F 94% 30.13 in 10.0 mi NE 10.4 mph - N/A   Clear
3:15 AM 64.4 °F - 62.6 °F 94% 30.13 in 10.0 mi NE 9.2 mph - N/A   Scattered Clouds
3:35 AM 64.4 °F - 62.6 °F 94% 30.13 in 10.0 mi NE 12.7 mph - N/A   Mostly Cloudy
3:55 AM 64.4 °F - 62.6 °F 94% 30.13 in 10.0 mi NE 11.5 mph - N/A   Scattered Clouds
4:15 AM 64.4 °F - 62.6 °F 94% 30.13 in 10.0 mi NE 11.5 mph - N/A   Clear
4:35 AM 64.4 °F - 62.6 °F 94% 30.13 in 10.0 mi NE 10.4 mph - N/A   Clear
4:55 AM 64.4 °F - 62.6 °F 94% 30.13 in 10.0 mi NE 11.5 mph - N/A   Clear
5:15 AM 64.4 °F - 62.6 °F 94% 30.13 in 10.0 mi NE 11.5 mph - N/A   Clear
5:35 AM 64.4 °F - 60.8 °F 88% 30.14 in 10.0 mi NE 10.4 mph - N/A   Clear
5:55 AM 64.4 °F - 60.8 °F 88% 30.14 in 10.0 mi NE 10.4 mph - N/A   Clear
6:15 AM 64.4 °F - 60.8 °F 88% 30.14 in 10.0 mi NE 12.7 mph - N/A   Clear
6:35 AM 62.6 °F - 60.8 °F 94% 30.15 in 10.0 mi NE 10.4 mph - N/A   Clear
6:55 AM 62.6 °F - 60.8 °F 94% 30.16 in 10.0 mi NE 9.2 mph - N/A   Clear
7:15 AM 64.4 °F - 60.8 °F 88% 30.16 in 10.0 mi NE 10.4 mph - N/A   Clear
7:35 AM 64.4 °F - 60.8 °F 88% 30.16 in 10.0 mi NE 13.8 mph - N/A   Clear
7:55 AM 64.4 °F - 60.8 °F 88% 30.17 in 10.0 mi NE 9.2 mph - N/A   Clear
8:15 AM 66.2 °F - 60.8 °F 83% 30.17 in 10.0 mi NE 11.5 mph - N/A   Clear
8:35 AM 66.2 °F - 60.8 °F 83% 30.17 in 10.0 mi NE 11.5 mph - N/A   Clear
8:55 AM 68.0 °F - 60.8 °F 78% 30.17 in 10.0 mi NE 10.4 mph - N/A   Clear
9:15 AM 68.0 °F - 60.8 °F 78% 30.18 in 10.0 mi ENE 12.7 mph 16.1 mph N/A   Clear
9:35 AM 69.8 °F - 62.6 °F 78% 30.18 in 10.0 mi ENE 10.4 mph - N/A   Clear
9:55 AM 71.6 °F - 62.6 °F 73% 30.18 in 10.0 mi NE 11.5 mph - N/A   Clear
10:15 AM 73.4 °F - 62.6 °F 69% 30.17 in 10.0 mi ENE 11.5 mph - N/A   Clear
10:35 AM 73.4 °F - 64.4 °F 73% 30.17 in 10.0 mi ENE 11.5 mph - N/A   Clear
10:55 AM 77.0 °F - 64.4 °F 65% 30.16 in 10.0 mi ENE 8.1 mph - N/A   Clear
11:15 AM 78.8 °F - 64.4 °F 61% 30.16 in 10.0 mi ENE 10.4 mph - N/A   Clear
11:35 AM 78.8 °F - 64.4 °F 61% 30.15 in 10.0 mi East 8.1 mph - N/A   Clear
11:55 AM 80.6 °F 82.3 °F 64.4 °F 58% 30.14 in 10.0 mi East 9.2 mph - N/A   Clear
12:15 PM 80.6 °F 82.3 °F 64.4 °F 58% 30.14 in 10.0 mi East 5.8 mph - N/A   Clear
12:35 PM 80.6 °F 82.3 °F 64.4 °F 58% 30.13 in 10.0 mi East 6.9 mph - N/A   Scattered Clouds
12:55 PM 78.8 °F - 62.6 °F 57% 30.12 in 10.0 mi ENE 4.6 mph - N/A   Scattered Clouds
1:15 PM 80.6 °F 81.8 °F 62.6 °F 54% 30.11 in 10.0 mi ENE 5.8 mph - N/A   Clear
1:35 PM 80.6 °F 81.8 °F 62.6 °F 54% 30.11 in 10.0 mi East 5.8 mph - N/A   Clear
1:55 PM 80.6 °F 81.8 °F 62.6 °F 54% 30.09 in 10.0 mi East 5.8 mph - N/A   Clear
2:15 PM 80.6 °F 81.8 °F 62.6 °F 54% 30.09 in 10.0 mi ENE 3.5 mph - N/A   Clear
2:35 PM 80.6 °F 81.8 °F 62.6 °F 54% 30.09 in 10.0 mi East 4.6 mph - N/A   Clear
2:55 PM 82.4 °F 83.4 °F 62.6 °F 51% 30.08 in 10.0 mi East 4.6 mph - N/A   Clear
3:15 PM 82.4 °F 83.4 °F 62.6 °F 51% 30.08 in 10.0 mi East 5.8 mph - N/A   Clear
3:35 PM 80.6 °F 81.5 °F 60.8 °F 51% 30.08 in 10.0 mi East 3.5 mph - N/A   Clear
3:55 PM 80.6 °F 81.5 °F 60.8 °F 51% 30.08 in 10.0 mi East 3.5 mph - N/A   Clear
4:15 PM 80.6 °F 81.5 °F 60.8 °F 51% 30.08 in 10.0 mi East 5.8 mph - N/A   Clear
4:35 PM 80.6 °F 81.5 °F 60.8 °F 51% 30.09 in 10.0 mi East 3.5 mph - N/A   Clear
4:55 PM 80.6 °F 81.5 °F 60.8 °F 51% 30.09 in 10.0 mi ENE 4.6 mph - N/A   Clear
5:15 PM 78.8 °F - 60.8 °F 54% 30.08 in 10.0 mi East 4.6 mph - N/A   Clear
5:35 PM 77.0 °F - 60.8 °F 57% 30.09 in 10.0 mi ENE 4.6 mph - N/A   Clear
5:55 PM 75.2 °F - 60.8 °F 61% 30.09 in 10.0 mi ENE 3.5 mph - N/A   Clear
6:15 PM 73.4 °F - 60.8 °F 65% 30.09 in 10.0 mi Calm Calm - N/A   Clear
6:35 PM 73.4 °F - 62.6 °F 69% 30.09 in 10.0 mi Calm Calm - N/A   Clear
6:55 PM 71.6 °F - 62.6 °F 73% 30.09 in 10.0 mi Calm Calm - N/A   Clear
7:15 PM 71.6 °F - 62.6 °F 73% 30.09 in 10.0 mi Calm Calm - N/A   Clear
7:35 PM 71.6 °F - 62.6 °F 73% 30.10 in 10.0 mi Calm Calm - N/A   Clear
7:55 PM 73.4 °F - 62.6 °F 69% 30.10 in 10.0 mi Calm Calm - N/A   Clear
8:15 PM 71.6 °F - 62.6 °F 73% 30.10 in 10.0 mi Calm Calm - N/A   Clear
8:35 PM 71.6 °F - 62.6 °F 73% 30.11 in 10.0 mi Calm Calm - N/A   Clear
8:55 PM 71.6 °F - 62.6 °F 73% 30.11 in 10.0 mi NE 3.5 mph - N/A   Clear
9:15 PM 69.8 °F - 62.6 °F 78% 30.11 in 10.0 mi NE 4.6 mph - N/A   Clear
9:35 PM 69.8 °F - 62.6 °F 78% 30.11 in 10.0 mi ENE 3.5 mph - N/A   Clear
9:55 PM 69.8 °F - 62.6 °F 78% 30.11 in 10.0 mi NE 3.5 mph - N/A   Clear
10:15 PM 69.8 °F - 62.6 °F 78% 30.12 in 10.0 mi NE 3.5 mph - N/A   Clear
10:35 PM 68.0 °F - 62.6 °F 83% 30.12 in 10.0 mi NE 3.5 mph - N/A   Clear
10:55 PM 68.0 °F - 62.6 °F 83% 30.12 in 10.0 mi ENE 4.6 mph - N/A   Clear
11:15 PM 69.8 °F - 62.6 °F 78% 30.12 in 10.0 mi ENE 3.5 mph - N/A   Clear
11:35 PM 68.0 °F - 62.6 °F 83% 30.12 in 10.0 mi Calm Calm - N/A   Clear
11:55 PM 68.0 °F - 62.6 °F 83% 30.11 in 10.0 mi NE 4.6 mph - N/A   Clear